Find Starlink 31492

NORAD ID: 59212 Int'l Des: 2024-046 Owner: SPXS Country: US Constellation: starlink operational
LEOCIRCULAR

リアルタイム位置

3D地球を読み込み中...

Starlink 31492について

説明を読み込み中...

次回通過

Passes for default location (London). Set your location on the main map for personalized predictions.

高度履歴

Loading altitude history...

軌道要素

1 59212U 24046M 26126.35190888 -.00001985 00000-0 -54903-4 0 9994
2 59212 53.1604 247.7996 0002017 89.8893 270.2338 15.30187818121864
Epoch: May 6, 2026 • Age: 12 hours

現在のステータス

高度 475.6 km
速度 7.63 km/s
衛星直下点 26.48°N, 121.75°W
打ち上げ日 Mar 11, 2024
運用期間 2.1 years
タイプ internet

技術仕様

分類 Payload
質量 730.00 kg
乾燥質量 700.00 kg
総質量 730.00 kg
長さ 0.30 m
直径 4.10 m
スパン 29.00 m
形状 Box + pan
製造者 SPXS
バスタイプ Starlink V2M
フェーズステータス In Orbit
所有者/国 SPXS/US

Most Searched